EW0352 Weather Reports


Display with metric or nautical units.
time (UTC)temp
F
wind
direction
speed
MPH
gust
MPH
rain 1hr
in
rain 24hr
in
rain mn
in
humidity
%
barometer
mb
20200329191718 42 340 10.0 20.0 0.00 1.47 0.52 87 1008.1
20200329190817 42 341 10.0 21.0 0.00 1.47 0.52 87 1007.9
20200329185917 42 340 9.0 21.0 0.00 1.47 0.52 87 1007.6
20200329185017 42 338 9.0 24.0 0.00 1.47 0.52 88 1007.3
20200329184118 42 337 9.0 25.0 0.00 1.47 0.52 87 1007.1
20200329183217 41 331 8.0 17.0 0.00 1.47 0.52 89 1006.9
20200329182317 41 336 8.0 17.0 0.00 1.47 0.52 89 1006.6
20200329181417 41 334 7.0 18.0 0.00 1.47 0.52 89 1006.4
20200329180517 41 341 8.0 18.0 0.00 1.48 0.52 88 1006.3
20200329175618 41 337 10.0 22.0 0.00 1.48 0.52 88 1006.1
20200329174717 41 341 12.0 24.0 0.00 1.48 0.52 89 1005.9
20200329173817 40 339 8.0 18.0 0.00 1.48 0.52 89 1005.7
20200329172917 40 335 10.0 19.0 0.00 1.48 0.52 89 1005.4
20200329172018 40 331 10.0 21.0 0.00 1.48 0.52 90 1005.2
20200329171118 39 328 9.0 20.0 0.00 1.48 0.52 90 1005.1
20200329170218 39 327 9.0 21.0 0.00 1.48 0.52 90 1005.1
20200329165318 39 328 8.0 20.0 0.00 1.48 0.52 90 1004.9
20200329164418 39 339 8.0 17.0 0.00 1.48 0.52 90 1004.9
20200329163518 39 330 9.0 21.0 0.00 1.48 0.52 90 1004.6
20200329162618 39 330 9.0 20.0 0.00 1.48 0.52 89 1004.5
20200329161718 39 333 11.0 25.0 0.00 1.48 0.52 89 1004.1
20200329160818 39 326 9.0 21.0 0.01 1.48 0.52 89 1003.9
20200329155918 39 334 8.0 17.0 0.01 1.48 0.45 90 1003.7
20200329155018 38 330 9.0 19.0 0.01 1.48 0.45 91 1003.4
20200329154118 38 329 8.0 19.0 0.01 1.48 0.45 91 1003.2
20200329153218 37 333 8.0 19.0 0.01 1.48 0.45 92 1003.0
20200329152318 37 337 8.0 16.0 0.01 1.48 0.45 92 1002.9
20200329151418 37 333 8.0 16.0 0.01 1.48 0.45 92 1002.6
20200329150518 37 331 8.0 17.0 0.00 1.47 0.44 92 1002.4
20200329145618 37 333 8.0 22.0 0.00 1.47 0.44 93 1002.2
20200329144718 36 330 8.0 18.0 0.00 1.47 0.44 93 1002.1
20200329143818 36 327 7.0 15.0 0.00 1.47 0.44 93 1001.9
20200329142919 36 328 6.0 14.0 0.01 1.47 0.44 93 1001.8
20200329142018 36 324 7.0 15.0 0.02 1.47 0.44 93 1001.5
20200329141118 36 332 6.0 19.0 0.03 1.47 0.44 93 1001.3
20200329140218 36 328 7.0 18.0 0.04 1.47 0.44 93 1001.2
20200329135318 36 332 8.0 21.0 0.06 1.47 0.44 93 1001.0
20200329134418 35 330 9.0 21.0 0.08 1.47 0.44 93 1000.7
20200329133518 35 329 8.0 15.0 0.12 1.46 0.43 93 1000.4
20200329132618 35 320 8.0 18.0 0.16 1.46 0.43 93 1000.3
20200329131718 35 323 9.0 18.0 0.15 1.45 0.42 93 1000.0
20200329130818 35 325 9.0 17.0 0.16 1.43 0.41 93 999.9
20200329125918 35 329 8.0 16.0 0.14 1.41 0.39 94 999.8
20200329125018 35 334 8.0 20.0 0.13 1.39 0.37 94 999.5
20200329124118 35 329 8.0 17.0 0.09 1.36 0.34 94 999.3
20200329123218 35 327 9.0 16.0 0.09 1.33 0.31 94 999.1
20200329122318 35 330 8.0 17.0 0.06 1.30 0.27 94 998.9
20200329121418 35 328 8.0 17.0 0.05 1.29 0.26 94 998.5
20200329120518 35 332 7.0 18.0 0.04 1.28 0.25 94 998.2
20200329115618 35 334 8.0 18.0 0.03 1.27 0.24 94 998.0
20200329114718 35 329 8.0 16.0 0.03 1.27 0.24 94 997.8
20200329113818 35 328 7.0 15.0 0.02 1.26 0.24 94 997.6
20200329112918 35 334 8.0 18.0 0.00 1.23 0.21 94 997.4
20200329112018 34 340 7.0 16.0 0.00 1.23 0.21 94 997.2
20200329111118 34 338 7.0 17.0 0.00 1.23 0.21 94 996.8
20200329110218 34 338 8.0 17.0 0.00 1.23 0.21 94 996.7
20200329105318 34 339 6.0 14.0 0.00 1.23 0.21 94 996.6
20200329104418 34 341 7.0 14.0 0.00 1.23 0.21 94 996.4
20200329103518 34 338 8.0 16.0 0.00 1.23 0.21 94 996.2
20200329102618 34 342 8.0 16.0 0.00 1.23 0.21 94 995.8
20200329101718 34 348 7.0 17.0 0.00 1.23 0.21 94 995.6
20200329100818 33 348 7.0 20.0 0.00 1.23 0.21 94 995.4
20200329095918 33 345 7.0 19.0 0.00 1.23 0.21 94 995.3
20200329095018 33 346 7.0 14.0 0.00 1.23 0.21 94 995.2
20200329094118 33 343 6.0 14.0 0.00 1.23 0.21 94 994.9
20200329093218 33 338 6.0 15.0 0.00 1.23 0.21 94 994.8
20200329092325 33 339 7.0 18.0 0.00 1.23 0.21 94 994.7
20200329091418 33 343 7.0 16.0 0.00 1.23 0.21 94 994.6
20200329090518 33 340 8.0 20.0 0.00 1.23 0.21 94 994.5
20200329085618 34 339 8.0 20.0 0.00 1.23 0.21 94 994.3
20200329084719 34 343 8.0 17.0 0.00 1.23 0.21 94 994.3
20200329083818 34 345 9.0 25.0 0.00 1.23 0.21 94 994.1
20200329082918 34 343 7.0 20.0 0.01 1.23 0.21 94 994.1
20200329082019 34 346 8.0 15.0 0.02 1.23 0.21 94 994.1
20200329081119 34 348 8.0 17.0 0.03 1.23 0.21 93 994.0
20200329080219 34 342 8.0 16.0 0.05 1.23 0.21 93 994.0
20200329075319 34 341 8.0 21.0 0.08 1.23 0.21 93 994.0
20200329074418 35 343 8.0 16.0 0.11 1.23 0.21 93 994.0
20200329073519 35 347 7.0 15.0 0.12 1.22 0.20 93 994.0
20200329072619 36 351 9.0 15.0 0.12 1.21 0.19 93 994.0
20200329071719 36 354 9.0 15.0 0.14 1.20 0.18 93 994.0
20200329070819 36 348 7.0 16.0 0.15 1.19 0.17 93 994.0
20200329065919 36 353 8.0 19.0 0.14 1.17 0.15 93 994.1
20200329065019 37 355 8.0 19.0 0.11 1.14 0.12 93 994.2
20200329064119 38 351 7.0 15.0 0.08 1.12 0.09 93 994.2
20200329063219 39 5 6.0 17.0 0.07 1.10 0.07 93 994.2
20200329062319 39 10 8.0 17.0 0.06 1.09 0.06 93 994.2
20200329061419 39 5 8.0 18.0 0.03 1.05 0.04 93 994.3
20200329060519 40 6 8.0 15.0 0.02 1.04 0.02 93 994.2
20200329055619 40 7 7.0 19.0 0.01 1.03 0.01 93 994.1
20200329054719 39 16 6.0 14.0 0.01 1.03 0.01 93 994.1
20200329053819 39 8 8.0 17.0 0.01 1.03 0.01 93 994.1
20200329052919 39 17 7.0 16.0 0.00 1.02 0.00 94 994.3
20200329052019 39 6 7.0 15.0 0.00 1.02 0.00 94 994.3
20200329051119 39 11 6.0 15.0 0.00 1.02 0.00 93 994.3
20200329050219 39 23 5.0 15.0 0.00 1.02 0.00 93 994.4
20200329045319 39 21 7.0 15.0 0.00 1.02 1.02 93 994.6
20200329044419 39 28 7.0 17.0 0.00 1.02 1.02 93 994.6
20200329043519 39 31 7.0 18.0 0.01 1.02 1.02 93 994.7
20200329042619 38 34 10.0 20.0 0.03 1.03 1.02 93 994.8
20200329041719 38 28 9.0 20.0 0.03 1.03 1.02 93 994.8
20200329040819 38 29 9.0 20.0 0.03 1.03 1.02 93 994.7
20200329035919 38 30 8.0 20.0 0.03 1.03 1.02 93 994.8
20200329035019 38 35 7.0 20.0 0.03 1.03 1.02 93 994.9
20200329034119 38 36 7.0 18.0 0.02 1.02 1.01 93 995.1
20200329033219 38 39 7.0 17.0 0.01 1.01 1.00 93 995.3
20200329032319 39 35 6.0 14.0 0.00 1.00 0.99 93 995.5
20200329031419 39 32 7.0 21.0 0.00 1.00 0.99 93 995.6
20200329030519 39 43 7.0 15.0 0.00 1.00 0.99 93 995.8
20200329025619 39 36 7.0 18.0 0.00 1.00 0.99 92 996.0
20200329024719 39 32 8.0 18.0 0.00 1.01 0.99 92 996.1
20200329023819 39 40 8.0 20.0 0.00 1.01 0.99 92 996.1
20200329022919 39 43 9.0 20.0 0.00 1.02 0.99 92 996.2
20200329022019 40 45 9.0 20.0 0.00 1.02 0.99 93 996.4
20200329021119 40 47 7.0 17.0 0.02 1.02 0.99 93 996.7
20200329020219 40 46 6.0 16.0 0.03 1.02 0.99 93 997.0
20200329015320 40 33 8.0 20.0 0.07 1.02 0.99 93 997.2
20200329014419 40 37 7.0 18.0 0.11 1.02 0.99 93 997.4
20200329013519 40 25 8.0 16.0 0.15 1.02 0.99 93 997.6
20200329012619 40 33 7.0 16.0 0.18 1.02 0.99 93 997.6
20200329011719 40 36 6.0 14.0 0.20 1.01 0.98 93 998.0
20200329010819 40 34 6.0 13.0 0.24 0.99 0.96 93 998.2
20200329005919 40 32 6.0 14.0 0.26 0.98 0.95 93 998.4
20200329005019 41 32 7.0 17.0 0.22 0.94 0.91 93 998.7
20200329004119 41 31 5.0 17.0 0.20 0.90 0.87 93 998.9
20200329003219 41 44 5.0 13.0 0.17 0.85 0.82 93 999.1
20200329002319 41 31 6.0 14.0 0.17 0.82 0.79 93 999.1
20200329001419 42 17 5.0 16.0 0.16 0.79 0.76 93 997.9
20200329000519 42 36 5.0 17.0 0.11 0.73 0.71 93 998.4
20200328235619 42 34 8.0 18.0 0.14 0.72 0.69 93 998.3
20200328234719 42 42 8.0 18.0 0.26 0.71 0.68 93 998.0
20200328233819 42 58 7.0 15.0 0.27 0.70 0.66 93 998.3
20200328232920 43 43 7.0 16.0 0.25 0.68 0.64 93 998.6
20200328232020 43 44 7.0 19.0 0.24 0.64 0.61 93 998.6
20200328231120 43 51 7.0 16.0 0.28 0.63 0.60 93 998.4
20200328230219 43 43 7.0 15.0 0.30 0.61 0.58 93 998.6
20200328225319 43 66 6.0 13.0 0.23 0.53 0.51 93 999.5
20200328224420 43 72 8.0 19.0 0.13 0.42 0.40 93 999.0
20200328223520 43 60 9.0 19.0 0.15 0.42 0.39 93 997.5
20200328222619 43 60 9.0 17.0 0.15 0.41 0.38 93 997.6
20200328221720 44 73 9.0 19.0 0.09 0.36 0.33 93 998.6
20200328220819 44 62 9.0 17.0 0.07 0.34 0.32 93 998.5
20200328215920 44 63 8.0 18.0 0.03 0.30 0.26 93 999.0
20200328215020 44 63 8.0 19.0 0.03 0.30 0.26 93 999.0
20200328214120 44 64 8.0 18.0 0.04 0.28 0.25 92 999.3
20200328213220 44 64 9.0 18.0 0.06 0.26 0.23 93 999.8
20200328212320 44 59 8.0 21.0 0.13 0.26 0.23 93 999.7
20200328211420 44 58 8.0 17.0 0.16 0.26 0.23 93 1000.4
20200328210520 44 55 7.0 18.0 0.19 0.26 0.23 93 1001.1
20200328205620 44 51 8.0 15.0 0.20 0.26 0.23 93 1001.6
20200328204720 44 42 8.0 18.0 0.22 0.26 0.23 93 1001.8
20200328203820 44 50 7.0 14.0 0.19 0.23 0.20 93 1002.0
20200328202920 44 59 6.0 12.0 0.13 0.17 0.14 93 1002.4
20200328202020 44 66 6.0 13.0 0.07 0.12 0.08 93 1002.7
20200328201120 44 67 5.0 11.0 0.04 0.08 0.05 93 1003.2
20200328200220 45 63 5.0 12.0 0.02 0.06 0.03 92 1003.5
20200328195320 45 49 5.0 11.0 0.01 0.05 0.02 92 1003.8
20200328194420 45 56 4.0 10.0 0.00 0.04 0.01 92 1004.0
20200328193520 45 56 5.0 10.0 0.00 0.04 0.01 92 1004.1
20200328192620 45 48 4.0 10.0 0.00 0.04 0.01 92 1004.3